Hourly Data Report for October 15, 2013

All times are specified in Local Standard Time (LST). Add 1 hour to adjust for Daylight Saving Time where and when it is observed.

CHARLOTTETOWN A
PRINCE EDWARD ISLAND

46°17'21.000" N
63°07'09.000" W
48.50 m
8300301
71706
YYG

Download Data

Hourly Data (October 2013)
Hourly Data Report for October 15, 2013
Temp Definition
°C
Dew Point Temp Definition
°C
Rel Hum Definition
%
Wind Dir Definition
10's deg

Wind Spd Definition
km/h
Visibility Definition
km
Stn Press Definition
kPa
Hmdx Definition


Wind Chill Definition


Weather Definition


TIME
00:00 Legend Double Dagger 11.4 10.0 91 24 11 24.1 101.60     Rain Showers
01:00 Legend Double Dagger 11.2 9.6 90 24 18 24.1 101.58     Rain Showers
02:00 Legend Double Dagger 10.7 9.9 95 25 15 24.1 101.54     Cloudy
03:00 Legend Double Dagger 11.1 10.3 95 26 17 24.1 101.51     LegendNANA
04:00 Legend Double Dagger 11.3 10.4 94 25 14 24.1 101.52     LegendNANA
05:00 Legend Double Dagger 11.3 10.4 94 27 11 24.1 101.53     Cloudy
06:00 Legend Double Dagger 11.2 10.3 94 29 12 24.1 101.60     LegendNANA
07:00 Legend Double Dagger 10.9 10.1 95 30 10 24.1 101.61     LegendNANA
08:00 Legend Double Dagger 11.3 10.2 93 31 10 24.1 101.68     Mostly Cloudy
09:00 Legend Double Dagger 12.4 10.5 88 33 17 24.1 101.71     LegendNANA
10:00 Legend Double Dagger 13.2 9.5 78 34 17 24.1 101.72     LegendNANA
11:00 Legend Double Dagger 13.7 9.4 75 34 14 24.1 101.73     Mostly Cloudy
12:00 Legend Double Dagger 13.3 6.9 65 31 18 24.1 101.75     LegendNANA
13:00 Legend Double Dagger 13.4 4.9 56 33 23 24.1 101.76     LegendNANA
14:00 Legend Double Dagger 12.3 4.3 58 33 19 24.1 101.80     Mostly Cloudy
15:00 Legend Double Dagger 11.5 4.1 60 34 17 24.1 101.85     LegendNANA
16:00 Legend Double Dagger 10.4 3.0 60 33 15 24.1 101.88     LegendNANA
17:00 Legend Double Dagger 9.0 3.2 67 34 8 24.1 101.88     Cloudy
18:00 Legend Double Dagger 7.2 2.9 74 36 8 24.1 101.87     LegendNANA
19:00 Legend Double Dagger 4.1 2.8 91 29 3 24.1 101.94     LegendNANA
20:00 Legend Double Dagger 4.6 2.5 86 30 3 24.1 101.97     Mainly Clear
21:00 Legend Double Dagger 2.1 1.4 95 30 5 24.1 102.02     LegendNANA
22:00 Legend Double Dagger 1.6 0.9 95 30 5 24.1 102.05     LegendNANA
23:00 Legend Double Dagger 0.9 0.3 96 30 1 24.1 102.05     Mainly Clear

Notes on Data Quality.

Legend

  • E = Estimated
  • M = Missing
  • NA = Not Available
  • ‡ = Partner data that is not subject to review by the National Climate Archives
Date modified: